McCall, ID

1:34 AM MDT on May 23, 2018 (GMT -0600)
McCall

Weather History for KMYL - February, 2014

Change the Weather History Date:

Wednesday, February 12, 2014

  Actual Average Record
Temperature  
Mean Temperature 34 °F 21 °F  
Max Temperature 37 °F 33 °F 50 °F (1996)
Min Temperature 31 °F 10 °F -15 °F (1948)
Degree Days  
Heating Degree Days 31 44  
Month to date heating degree days 545 528  
Since 1 July heating degree days 5437 6002  
Cooling Degree Days 0 0  
Month to date cooling degree days 0 0  
Year to date cooling degree days 0 0  
Moisture  
Dew Point 31 °F    
Average Humidity 87    
Maximum Humidity 96    
Minimum Humidity 78    
Precipitation  
Precipitation 0.40 in 0.06 in 1.16 in (1975)
Month to date precipitation 1.44 0.84  
Year to date precipitation 3.10 2.57  
Sea Level Pressure  
Sea Level Pressure 29.91 in    
Wind  
Wind Speed 7 mph (SE)    
Max Wind Speed 17 mph    
Max Gust Speed 22 mph    
Visibility 5 miles    
Events Rain , Snow    
T = Trace of Precipitation, MM = Missing Value Source: NWS Daily Summary

Daily Weather History Graph

Daily Weather History Graph

Search for Another Location

Airport or City:

Astronomy

Feb. 12, 2014 Rise Set
Actual Time 7:49 AM MST 6:08 PM MST
Civil Twilight 7:19 AM MST 6:38 PM MST
Nautical Twilight 6:44 AM MST 7:13 PM MST
Astronomical Twilight 6:10 AM MST 7:47 PM MST
Moon 4:24 PM MST (2/12) 6:11 AM MST (2/12)
Length of Visible Light 11h 19m
Length of Day
10h 19m
Waxing Gibbous, 96% of the Moon is Illuminated
Feb 12
Waxing Gibbous
Feb 14
Full
Feb 22
Last Quarter
Mar 1
New
Mar 8
First Quarter

Hourly Weather History & Observations

Time (MST) Temp. Windchill Dew Point Humidity Pressure Visibility Wind Dir Wind Speed Gust Speed Precip Events Conditions
12:30 AM 30.9 °F 20.7 °F 28.0 °F 89% 30.00 in 2.5 mi SSE 13.8 mph - 0.01 in Snow Light Snow
12:40 AM 30.9 °F 21.7 °F 28.0 °F 89% 29.99 in 2.5 mi SSE 11.5 mph - 0.01 in Snow Light Snow
12:47 AM 30.2 °F 20.2 °F 28.4 °F 93% 29.98 in 3.0 mi SSE 12.7 mph - 0.01 in Snow Light Snow
12:48 AM 30.9 °F 21.2 °F 28.0 °F 89% 30.04 in 3.0 mi SSE 12.7 mph - 0.01 in Snow Light Snow
1:00 AM 30.9 °F 21.7 °F 28.0 °F 89% 29.98 in 2.5 mi SSE 11.5 mph - 0.00 in Snow Light Snow
1:20 AM 30.9 °F 22.2 °F 28.0 °F 89% 29.97 in 1.8 mi SSE 10.4 mph - 0.01 in Snow Light Snow
1:51 AM 30.9 °F 23.5 °F 28.9 °F 92% 30.00 in 1.5 mi SE 8.1 mph - 0.03 in Snow Light Snow
2:43 AM 30.9 °F 22.8 °F 28.9 °F 92% 29.93 in 1.5 mi SSE 9.2 mph - 0.03 in Snow Light Snow
2:51 AM 30.9 °F 21.2 °F 28.9 °F 92% 29.98 in 1.2 mi SSE 12.7 mph - 0.03 in Snow Light Snow
3:51 AM 32.0 °F 24.2 °F 28.9 °F 88% 29.95 in 1.5 mi SE 9.2 mph - 0.05 in Snow Light Snow
4:22 AM 32.0 °F 23.6 °F 30.0 °F 92% 29.89 in 1.0 mi SSE 10.4 mph - 0.02 in Snow Light Snow
4:44 AM 32.0 °F 23.6 °F 30.0 °F 92% 29.89 in 1.0 mi SE 10.4 mph - 0.05 in Snow Light Snow
4:51 AM 32.0 °F 23.6 °F 30.0 °F 92% 29.94 in 1.0 mi SSE 10.4 mph - 0.06 in Snow Light Snow
5:10 AM 32.0 °F 22.5 °F 30.0 °F 92% 29.88 in 1.2 mi SE 12.7 mph - 0.02 in Snow Light Snow
5:47 AM 32.0 °F 22.1 °F 30.2 °F 93% 29.88 in 1.0 mi SE 13.8 mph - 0.06 in Snow Light Snow
5:51 AM 32.0 °F 22.5 °F 30.0 °F 92% 29.93 in 1.0 mi SE 12.7 mph - 0.06 in Snow Light Snow
6:13 AM 33.1 °F 23.4 °F 30.0 °F 89% 29.86 in 1.5 mi SE 13.8 mph - 0.03 in Snow Light Snow
6:27 AM 33.1 °F 25.5 °F 30.0 °F 89% 29.86 in 2.0 mi SE 9.2 mph - 0.04 in Snow Light Snow
6:42 AM 32.0 °F 24.8 °F 30.0 °F 92% 29.86 in 3.0 mi SSE 8.1 mph - 0.04 in Snow Light Snow
6:49 AM 32.0 °F 24.8 °F 30.2 °F 93% 29.86 in 2.5 mi SE 8.1 mph - 0.04 in Snow Light Snow
6:51 AM 32.0 °F 25.6 °F 30.9 °F 96% 29.91 in 2.0 mi SE 6.9 mph - 0.04 in Snow Light Snow
7:28 AM 32.0 °F 27.5 °F 30.9 °F 96% 29.86 in 2.0 mi SSE 4.6 mph - 0.02 in Snow Light Snow
7:51 AM 32.0 °F 25.6 °F 30.0 °F 92% 29.91 in 2.0 mi SE 6.9 mph - 0.04 in Snow Light Snow
8:00 AM 33.1 °F 24.9 °F 30.0 °F 89% 29.85 in 3.0 mi SE 10.4 mph - 0.00 in Snow Light Snow
8:08 AM 33.1 °F 26.1 °F 30.0 °F 89% 29.85 in 3.0 mi SE 8.1 mph - 0.00 in Snow Light Snow
8:18 AM 33.1 °F 26.1 °F 30.0 °F 89% 29.85 in 4.0 mi SE 8.1 mph - 0.00 in Snow Light Snow
8:24 AM 33.1 °F 24.9 °F 30.0 °F 89% 29.84 in 5.0 mi SE 10.4 mph - 0.00 in Snow Light Snow
8:51 AM 33.1 °F 24.9 °F 30.0 °F 89% 29.92 in 4.0 mi SE 10.4 mph - 0.01 in Snow Light Snow
9:00 AM 33.1 °F 24.9 °F 30.0 °F 89% 29.86 in 2.0 mi SE 10.4 mph - 0.01 in Snow Light Snow
9:18 AM 33.1 °F 26.1 °F 30.9 °F 92% 29.86 in 3.0 mi ESE 8.1 mph - 0.01 in Snow Light Snow
9:28 AM 33.1 °F 26.1 °F 30.9 °F 92% 29.86 in 2.5 mi SE 8.1 mph - 0.01 in Snow Light Snow
9:34 AM 33.1 °F 26.9 °F 30.9 °F 92% 29.87 in 4.0 mi SE 6.9 mph - 0.02 in Snow Light Snow
9:51 AM 33.1 °F 27.7 °F 30.9 °F 92% 29.92 in 5.0 mi ESE 5.8 mph - 0.02 in Snow Light Snow
10:28 AM 33.1 °F - 30.9 °F 92% 29.86 in 9.0 mi Calm Calm - 0.01 in   Overcast
10:45 AM 34.0 °F - 30.9 °F 89% 29.87 in 7.0 mi Calm Calm - 0.01 in Snow Light Snow
10:51 AM 34.0 °F - 30.9 °F 89% 29.93 in 9.0 mi Calm Calm - 0.01 in   Overcast
11:26 AM 33.1 °F 27.7 °F 30.0 °F 89% 29.89 in 1.8 mi NW 5.8 mph - 0.01 in Snow Light Snow
11:37 AM 33.1 °F - 30.9 °F 92% 29.89 in 3.0 mi Calm Calm - 0.02 in Snow Light Snow
11:51 AM 34.0 °F - 30.9 °F 89% 29.95 in 4.0 mi Calm Calm - 0.02 in Snow Light Snow
12:05 PM 34.0 °F 31.0 °F 30.9 °F 89% 29.89 in 3.0 mi NW 3.5 mph - 0.01 in Snow Light Snow
12:23 PM 34.0 °F - 30.9 °F 89% 29.89 in 5.0 mi Calm Calm - 0.01 in Rain Light Rain
12:51 PM 35.1 °F - 32.0 °F 89% 29.94 in 10.0 mi Calm Calm - 0.02 in Rain Light Rain
1:51 PM 36.0 °F 33.3 °F 32.0 °F 86% 29.91 in 10.0 mi NNE 3.5 mph - 0.00 in   Overcast
2:44 PM 35.1 °F 30.1 °F 32.0 °F 89% 29.88 in 10.0 mi NNW 5.8 mph - 0.00 in Rain Light Rain
2:51 PM 34.0 °F 29.8 °F 32.0 °F 92% 29.94 in 8.0 mi NNW 4.6 mph - 0.00 in Rain Light Rain
3:26 PM 35.1 °F 31.0 °F 33.1 °F 92% 29.89 in 10.0 mi NE 4.6 mph - 0.00 in   Overcast
3:32 PM 36.0 °F 31.1 °F 32.0 °F 86% 29.89 in 10.0 mi North 5.8 mph - 0.00 in   Overcast
3:51 PM 36.0 °F 32.1 °F 32.0 °F 86% 29.94 in 10.0 mi NE 4.6 mph - 0.00 in   Overcast
4:10 PM 36.0 °F - 33.1 °F 89% 29.90 in 10.0 mi Calm Calm - N/A   Overcast
4:51 PM 36.0 °F 33.3 °F 32.0 °F 86% 29.95 in 10.0 mi North 3.5 mph - N/A   Overcast
5:07 PM 36.0 °F 33.3 °F 32.0 °F 86% 29.90 in 10.0 mi NNE 3.5 mph - N/A   Overcast
5:51 PM 36.0 °F - 33.1 °F 89% 29.96 in 10.0 mi Calm Calm - N/A   Overcast
6:51 PM 34.0 °F 29.8 °F 32.0 °F 92% 29.96 in 9.0 mi NNW 4.6 mph - N/A   Overcast
6:59 PM 35.1 °F - 32.0 °F 89% 29.91 in 9.0 mi Calm Calm - N/A   Overcast
7:37 PM 34.0 °F 31.0 °F 32.0 °F 92% 29.91 in 10.0 mi ESE 3.5 mph - 0.00 in Rain Light Rain
7:51 PM 34.0 °F 31.0 °F 32.0 °F 92% 29.97 in 10.0 mi South 3.5 mph - 0.00 in   Overcast
8:18 PM 36.0 °F 28.5 °F 32.0 °F 86% 29.90 in 10.0 mi SE 10.4 mph - 0.00 in Rain Light Rain
8:51 PM 36.0 °F 29.6 °F 33.1 °F 89% 29.95 in 10.0 mi SE 8.1 mph - 0.00 in   Overcast
9:10 PM 34.0 °F 31.0 °F 32.0 °F 92% 29.90 in 10.0 mi SSW 3.5 mph - 0.00 in Rain Light Rain
9:47 PM 35.6 °F 28.6 °F 32.0 °F 87% 29.90 in 10.0 mi SSE 9.2 mph - 0.00 in   Overcast
9:51 PM 36.0 °F 29.0 °F 32.0 °F 86% 29.94 in 10.0 mi SSE 9.2 mph - 0.00 in   Overcast
10:51 PM 36.0 °F 27.5 °F 33.1 °F 89% 29.93 in 10.0 mi SSE 12.7 mph - 0.00 in   Overcast
11:51 PM 36.0 °F 26.7 °F 33.1 °F 89% 29.93 in 10.0 mi SSE 15.0 mph - 0.00 in Rain Light Rain